Salt Lake City, UT

1:55 AM MST on January 23, 2018 (GMT -0700)
Salt Lake City International

Weather History for KSLC - October, 2013

Change the Weather History Date:

Saturday, October 5, 2013

  Actual Average Record
Temperature  
Mean Temperature 46 °F 57 °F  
Max Temperature 58 °F 70 °F 87 °F (1993)
Min Temperature 34 °F 45 °F 30 °F (1932)
Degree Days  
Heating Degree Days 19 8  
Month to date heating degree days 64 37  
Since 1 July heating degree days 119 126  
Cooling Degree Days 0 1  
Month to date cooling degree days 0 5  
Year to date cooling degree days 1768 1158  
Moisture  
Dew Point 29 °F    
Average Humidity 53    
Maximum Humidity 75    
Minimum Humidity 30    
Precipitation  
Precipitation 0.00 in 0.05 in 1.00 in (1941)
Month to date precipitation 0.15 0.24  
Year to date precipitation 8.76 11.96  
Snow  
Snow 0.00 in 0.00 in T in (1994)
Month to date snowfall T 0.0  
Since 1 July snowfall T 0.0  
Snow Depth 0.00 in    
Sea Level Pressure  
Sea Level Pressure 30.44 in    
Wind  
Wind Speed 4 mph (ESE)    
Max Wind Speed 13 mph    
Max Gust Speed 16 mph    
Visibility 10 miles    
Events      
T = Trace of Precipitation, MM = Missing Value Source: NWS Daily Summary

Daily Weather History Graph

Daily Weather History Graph

Search for Another Location

Airport or City:

Trip Planner

Search our weather history database for the weather conditions in past years. The results will help you decide how hot, cold, wet, or windy it might be!

Date:

Astronomy

Oct. 05, 2013 Rise Set
Actual Time 7:28 AM MDT 7:02 PM MDT
Civil Twilight 7:01 AM MDT 7:30 PM MDT
Nautical Twilight 6:29 AM MDT 8:01 PM MDT
Astronomical Twilight 5:57 AM MDT 8:33 PM MDT
Moon 8:12 AM MDT (10/5) 7:23 PM MDT (10/5)
Length of Visible Light 12h 28m
Length of Day
11h 33m
New Moon, 1% of the Moon is Illuminated
Oct 5
New Moon
Oct 11
First Quarter
Oct 18
Full
Oct 26
Last Quarter
Nov 3
New

Hourly Weather History & Observations

Time (MDT) Temp. Windchill Dew Point Humidity Pressure Visibility Wind Dir Wind Speed Gust Speed Precip Events Conditions
12:53 AM 39.9 °F 35.8 °F 28.9 °F 65% 30.41 in 10.0 mi SSE 5.8 mph - N/A   Partly Cloudy
1:53 AM 39.9 °F 37.8 °F 30.0 °F 68% 30.42 in 10.0 mi South 3.5 mph - N/A   Clear
2:53 AM 37.9 °F 33.5 °F 28.9 °F 70% 30.43 in 10.0 mi SSE 5.8 mph - N/A   Clear
3:53 AM 37.0 °F 31.6 °F 28.9 °F 73% 30.43 in 10.0 mi SSE 6.9 mph - N/A   Clear
4:53 AM 37.0 °F 32.4 °F 28.9 °F 73% 30.44 in 10.0 mi South 5.8 mph - N/A   Clear
5:53 AM 37.0 °F - 28.0 °F 70% 30.45 in 10.0 mi Calm Calm - N/A   Clear
6:53 AM 36.0 °F 30.3 °F 28.0 °F 73% 30.47 in 10.0 mi SSE 6.9 mph - N/A   Clear
7:53 AM 35.1 °F 30.1 °F 28.0 °F 76% 30.48 in 10.0 mi SE 5.8 mph - N/A   Partly Cloudy
8:53 AM 41.0 °F 39.0 °F 30.0 °F 65% 30.48 in 10.0 mi South 3.5 mph - N/A   Clear
9:53 AM 46.0 °F 43.9 °F 30.0 °F 54% 30.49 in 10.0 mi SE 4.6 mph - N/A   Clear
10:53 AM 51.1 °F - 30.0 °F 44% 30.48 in 10.0 mi NE 3.5 mph - N/A   Scattered Clouds
11:53 AM 54.0 °F - 30.9 °F 41% 30.48 in 10.0 mi North 4.6 mph - N/A   Scattered Clouds
12:53 PM 55.0 °F - 28.0 °F 35% 30.47 in 10.0 mi NNW 6.9 mph - N/A   Scattered Clouds
1:53 PM 55.9 °F - 27.0 °F 33% 30.44 in 10.0 mi North 6.9 mph - N/A   Mostly Cloudy
2:53 PM 55.9 °F - 26.1 °F 32% 30.43 in 10.0 mi North 4.6 mph 16.1 mph N/A   Scattered Clouds
3:53 PM 57.0 °F - 27.0 °F 32% 30.41 in 10.0 mi NNW 4.6 mph - N/A   Scattered Clouds
4:53 PM 57.0 °F - 28.0 °F 33% 30.41 in 10.0 mi NNW 5.8 mph - N/A   Scattered Clouds
5:53 PM 57.0 °F - 28.9 °F 34% 30.41 in 10.0 mi NW 6.9 mph - N/A   Scattered Clouds
6:53 PM 54.0 °F - 30.0 °F 40% 30.42 in 10.0 mi North 4.6 mph - N/A   Partly Cloudy
7:53 PM 53.1 °F - 28.0 °F 38% 30.43 in 10.0 mi North 3.5 mph - N/A   Partly Cloudy
8:53 PM 48.9 °F - 28.9 °F 46% 30.43 in 10.0 mi SSE 3.5 mph - N/A   Clear
9:53 PM 46.9 °F - 32.0 °F 56% 30.43 in 10.0 mi SSE 8.1 mph - N/A   Clear
10:53 PM 45.0 °F 41.2 °F 30.9 °F 58% 30.43 in 10.0 mi ESE 6.9 mph - N/A   Clear
11:53 PM 45.0 °F 41.8 °F 30.0 °F 56% 30.41 in 10.0 mi SSE 5.8 mph - N/A   Clear